Wind_Speed
14 16 17 17 17 17 18 18 19 20 21 21 20 21 21 23 24 24 24 24 24 23 23 22 21 20 19 18 18 18 18 19 19 19 20 20 20 19 17 16 16 17 18 19 20 21 21 20 20 19 19 18 16 16 18 21 22 22 22 24 27 28
14 15 16 16 17 17 18 19 19 20 20 21 21 22 23 24 25 25 25 24 24 24 23 22 21 20 19 18 17 17 17 19 20 20 20 20 21 20 19 18 18 18 18 19 20 21 21 21 21 20 20 19 17 16 18 21 22 23 23 23 26 28
14 15 15 16 17 18 18 19 19 19 20 21 22 22 24 25 26 25 25 24 24 24 23 22 21 20 19 18 17 17 18 19 20 20 20 20 21 21 21 20 19 19 19 19 20 21 21 22 22 21 20 20 18 17 19 21 22 24 24 23 25 27
14 14 15 17 17 18 18 19 18 18 20 21 21 23 24 25 26 25 25 24 23 23 22 21 20 20 20 19 18 17 18 19 19 19 20 20 21 21 21 21 20 20 19 19 20 20 21 22 22 21 21 20 18 17 18 20 22 23 24 25 25 26
14 14 15 16 17 17 16 16 16 17 19 20 21 22 24 25 26 25 24 23 22 22 21 21 19 18 18 19 19 17 18 18 18 19 19 19 20 21 21 21 20 20 20 20 20 20 22 22 22 21 21 21 20 18 19 20 21 23 24 26 26 25
14 14 14 15 15 14 14 14 15 17 19 20 20 22 24 24 25 25 24 23 21 20 20 20 19 18 18 18 18 17 17 18 19 19 19 19 18 18 20 20 20 20 20 20 20 21 22 22 22 21 21 22 21 18 18 20 21 23 24 26 27 27
13 13 12 12 13 12 13 14 15 18 19 20 21 21 22 23 24 24 23 22 20 19 18 18 18 18 17 17 17 17 17 18 19 20 19 18 17 17 18 20 20 20 20 20 20 21 22 23 23 22 22 22 21 18 18 20 21 23 24 26 28 28
11 11 11 11 12 12 13 14 15 17 18 19 20 20 20 20 21 22 22 20 19 17 16 16 17 17 17 16 16 16 17 16 16 17 16 15 15 16 18 19 19 19 19 20 20 22 23 24 24 24 23 23 21 18 18 20 21 23 24 26 29 31
9 9 10 10 11 11 12 13 14 15 16 16 17 18 18 18 18 19 19 18 17 16 15 15 16 17 16 16 15 16 16 16 14 15 15 14 14 16 17 17 17 17 18 19 20 21 23 24 24 24 24 23 22 19 19 20 21 22 24 27 29 32
8 9 9 9 9 11 12 12 12 12 13 13 15 16 16 16 15 15 15 15 14 14 14 14 14 14 14 14 14 15 16 15 15 16 16 15 15 16 17 17 17 18 18 19 19 21 22 24 24 24 24 24 22 20 19 20 20 21 23 27 30 32
8 8 8 9 10 11 11 11 11 11 11 12 13 13 14 13 12 12 12 12 12 12 12 12 12 11 11 11 12 13 15 16 16 17 17 16 16 16 16 17 17 18 18 18 18 19 21 23 24 24 24 24 23 21 21 22 21 22 23 26 28 31
9 9 8 10 11 11 11 11 11 11 11 11 12 12 12 12 11 10 10 10 10 11 11 11 11 11 10 10 11 13 15 16 16 16 16 16 16 15 15 15 17 18 18 18 18 18 20 21 22 23 23 24 23 21 21 22 22 22 23 25 27 29
9 8 9 11 11 12 12 12 12 11 12 12 12 12 12 12 11 10 9 9 9 10 9 10 10 10 11 12 12 13 15 15 15 16 16 16 16 16 16 16 17 18 17 17 17 17 17 18 19 21 22 22 22 21 21 22 22 22 22 24 25 26
8 8 9 11 12 12 13 13 13 12 12 12 12 12 12 12 11 10 9 9 9 9 9 9 9 10 11 13 14 14 14 15 15 15 15 16 17 16 16 16 17 17 17 17 17 17 17 17 18 19 21 22 21 21 21 22 23 23 22 23 23 24
7 8 10 12 12 12 13 13 13 13 13 12 12 12 12 11 11 10 9 9 9 9 9 9 9 9 10 12 13 14 14 14 14 14 14 15 15 15 15 16 17 18 17 16 17 18 17 17 17 18 20 21 21 22 22 22 23 23 23 22 22 23
7 9 11 12 12 12 12 12 13 13 13 13 12 12 12 11 11 10 10 10 10 9 9 9 9 9 9 11 12 13 13 13 13 13 13 13 14 14 14 15 16 17 16 15 16 16 17 17 18 18 19 19 21 22 22 21 22 23 24 24 23 24
8 10 12 12 12 12 13 13 14 15 14 14 12 11 11 11 10 10 10 10 10 10 10 10 10 9 9 10 10 11 12 12 12 12 11 11 12 13 13 14 14 14 14 13 15 15 16 18 18 18 18 18 19 21 22 20 21 22 24 25 24 24
9 10 13 13 13 13 14 14 14 15 15 14 13 12 11 11 10 10 9 9 9 9 10 10 10 10 10 9 10 11 11 12 12 12 11 11 12 12 13 14 13 12 13 13 14 15 16 16 17 17 17 17 18 19 21 21 20 21 23 24 23 24
9 10 13 14 13 13 14 14 14 14 14 14 14 13 12 11 10 9 9 9 9 9 9 10 10 11 11 10 10 11 12 12 13 12 12 12 12 12 13 14 13 12 13 13 13 14 15 15 15 16 16 17 18 19 20 21 21 20 20 22 23 23
11 11 13 15 14 13 14 13 13 13 13 13 13 13 13 12 11 9 8 8 9 8 9 9 10 11 12 12 12 12 13 13 13 13 13 12 13 13 14 14 14 13 13 12 13 14 14 15 15 15 15 16 18 19 19 19 19 19 19 20 22 24
14 13 13 15 15 14 14 13 14 14 13 13 13 13 13 13 13 11 9 9 9 9 9 10 10 11 12 13 13 13 14 14 14 14 14 14 14 15 15 14 14 14 14 13 14 14 14 14 15 15 15 15 16 17 18 18 17 17 18 18 19 21
14 12 12 15 16 15 13 14 15 16 15 13 13 13 12 13 13 13 12 10 10 10 11 11 11 11 12 12 13 14 14 14 15 15 15 15 15 16 16 15 15 15 15 15 14 15 15 15 15 15 15 15 15 16 17 17 17 17 17 16 15 17
14 12 13 15 17 16 13 13 15 15 16 15 14 13 13 13 13 13 13 12 11 11 12 12 12 12 12 12 12 13 14 14 14 15 16 16 17 17 17 17 16 16 16 15 15 16 16 15 15 16 15 15 16 16 16 16 17 17 16 16 16 16
17 15 14 16 18 17 14 13 13 14 15 15 14 13 13 13 13 13 13 12 12 12 12 12 13 13 13 13 13 13 13 13 14 15 16 17 17 18 18 18 17 17 17 17 17 17 17 16 16 17 17 17 17 17 17 17 18 17 17 16 16 16
18 18 16 16 17 18 15 13 12 13 14 14 14 12 12 12 12 13 13 13 12 12 12 12 12 13 13 13 13 13 13 13 14 15 16 17 17 18 18 18 18 18 18 18 18 18 18 17 17 18 18 19 18 18 19 18 18 18 17 16 17 17
19 20 19 18 17 19 17 13 12 12 12 13 14 12 12 12 11 12 12 13 13 12 12 12 12 13 13 13 13 13 13 13 13 14 15 16 16 17 17 18 18 19 19 19 19 19 19 18 18 19 19 20 20 20 20 19 19 18 17 16 16 16
19 20 21 20 19 20 19 15 12 11 11 12 13 12 12 12 11 11 12 12 13 12 12 12 11 12 12 13 13 14 13 13 13 13 14 15 16 16 17 17 18 19 20 20 20 20 20 20 19 19 21 21 20 20 20 20 20 19 18 18 16 16
17 19 21 22 23 23 22 18 14 11 11 12 13 14 13 13 12 12 12 13 13 13 12 12 12 11 11 12 13 13 13 13 13 13 14 15 15 16 17 18 18 19 20 21 21 21 21 21 21 20 21 21 20 20 20 20 20 20 20 19 18 18
16 19 21 22 24 23 21 19 15 12 11 12 13 15 14 14 14 14 14 14 14 13 12 12 12 11 11 12 12 13 13 13 13 13 14 15 16 17 17 18 19 20 20 21 22 22 22 22 22 22 22 22 20 20 21 21 20 20 19 18 18 17
17 19 20 20 21 21 20 20 18 14 13 12 13 15 15 15 15 15 15 15 15 14 13 11 11 11 11 12 12 12 12 13 13 13 14 15 16 17 17 18 19 20 21 21 22 22 22 23 22 22 22 21 20 21 22 22 22 22 22 21 20 19
19 19 20 20 20 21 24 26 27 23 17 13 13 14 16 16 16 16 16 16 16 14 13 11 10 10 11 11 11 11 11 12 13 13 13 14 15 16 17 18 19 19 20 21 21 21 21 22 22 21 21 20 21 21 21 22 23 24 25 25 24 23
21 21 22 23 22 23 25 28 33 32 23 15 13 15 17 17 17 17 16 16 16 15 12 11 10 10 10 10 10 10 10 11 11 12 13 13 14 15 16 17 18 18 19 20 20 20 20 20 20 20 20 19 20 21 21 22 23 24 25 25 25 25
24 23 23 24 26 26 26 26 30 31 25 18 15 15 17 18 18 17 17 16 16 14 12 10 10 10 10 10 10 10 10 10 10 11 12 12 13 14 15 16 17 17 18 19 19 18 18 18 19 18 18 18 19 20 21 22 23 24 25 25 25 25
30 28 24 23 26 28 27 27 28 29 29 25 19 15 17 18 18 18 18 17 16 14 12 10 10 11 11 11 11 11 10 10 10 10 10 11 12 12 13 14 15 16 17 18 18 18 17 17 17 17 16 16 17 18 19 20 21 22 23 23 24 24
32 29 23 22 26 28 27 27 29 31 33 32 24 17 17 17 17 17 18 17 16 14 12 10 10 11 11 12 12 12 12 12 11 10 10 10 11 11 12 13 13 14 15 16 17 17 17 17 17 16 16 15 15 16 17 18 19 20 20 20 20 21
28 26 24 23 25 26 25 26 28 29 31 31 25 20 18 17 16 17 18 18 17 15 13 11 10 11 11 11 12 12 13 13 13 12 11 11 11 11 12 12 13 14 14 15 16 17 17 17 17 16 16 16 15 16 16 16 17 17 17 17 17 17
22 24 25 24 24 26 26 24 24 23 23 23 21 21 20 18 16 17 18 19 18 16 14 12 12 11 12 12 12 12 12 13 13 14 13 13 12 12 12 13 13 14 14 15 16 16 17 17 17 17 16 16 16 16 16 16 16 16 15 15 15 15
Wind_Direction
251 253 256 258 259 262 265 271 274 276 278 278 279 278 277 276 276 277 278 278 277 277 277 277 276 276 274 272 271 268 265 262 257 251 245 242 241 240 238 238 238 239 239 238 238 238 240 241 240 241 241 240 232 223 227 227 222 221 223 226 229 234
246 247 250 253 257 263 267 271 273 275 277 278 278 278 277 276 276 277 278 278 277 277 278 278 277 277 275 272 269 266 262 260 257 253 248 244 242 242 241 239 238 240 242 241 240 239 239 240 239 239 239 239 232 222 224 227 225 223 223 225 227 230
238 244 249 255 262 265 269 271 273 276 277 276 277 277 276 276 277 278 278 278 278 278 278 279 278 277 277 273 268 264 259 256 255 254 251 248 246 244 242 241 241 242 244 244 244 243 242 241 240 239 238 237 230 222 223 225 227 227 225 226 227 229
239 247 254 260 264 267 270 272 275 276 275 275 276 277 277 278 278 278 278 279 278 278 278 278 278 277 275 270 265 261 256 254 255 255 254 253 251 249 246 244 244 244 245 246 246 245 245 243 241 240 237 235 228 220 223 226 228 229 229 229 229 230
240 249 257 262 264 267 270 272 275 273 272 274 276 276 276 277 278 278 278 279 279 278 276 274 275 276 273 266 260 256 254 254 254 254 254 254 254 253 250 247 245 244 245 246 246 246 246 244 243 241 239 236 228 218 222 227 228 230 231 231 230 230
240 249 257 261 264 267 270 273 272 271 272 273 274 274 275 276 278 279 279 280 280 277 275 273 272 272 269 263 256 252 252 253 254 254 253 253 255 255 252 248 245 243 244 244 244 244 245 243 242 243 243 239 232 221 222 228 229 231 232 231 231 230
239 246 252 260 266 269 272 273 272 273 273 272 273 274 276 279 281 282 282 282 279 276 274 273 271 268 264 259 254 251 251 252 254 255 255 257 258 257 253 248 244 242 242 243 242 241 242 241 241 243 244 242 237 227 225 230 231 232 233 232 231 231
236 246 254 264 271 274 274 273 273 274 274 274 275 277 280 283 286 287 287 285 282 278 275 272 267 264 262 259 256 252 251 251 251 252 254 257 258 256 253 249 246 244 244 244 243 242 242 242 240 241 244 245 242 233 228 234 236 235 235 233 231 230
239 251 261 269 274 276 276 274 275 276 276 279 279 280 282 285 290 292 291 288 284 279 276 272 267 263 262 261 258 254 251 250 248 248 250 252 255 255 252 251 250 248 245 243 243 243 244 243 242 242 244 246 246 237 232 237 239 236 235 234 231 230
242 255 263 271 275 273 271 271 275 278 279 280 280 281 283 285 289 292 293 289 284 279 276 274 269 264 262 262 259 255 252 249 245 246 248 248 251 254 252 250 249 249 249 246 244 244 246 246 245 244 244 245 245 240 236 237 239 237 235 234 233 231
235 252 264 271 272 269 267 268 271 275 277 276 277 278 279 283 287 291 292 288 285 282 278 274 268 262 259 260 258 254 251 247 244 245 248 249 252 255 254 250 248 250 251 250 248 247 248 249 248 248 246 246 246 242 240 240 240 240 238 236 235 234
235 252 266 273 274 275 272 268 268 270 273 275 276 277 279 283 285 289 289 286 284 280 276 272 263 254 249 249 248 247 247 247 247 248 250 253 254 255 256 255 252 251 252 252 252 251 250 250 250 251 250 250 250 247 245 243 243 243 241 239 237 237
244 260 272 279 281 282 278 271 270 270 273 276 278 280 282 285 286 285 283 282 280 277 275 270 259 252 246 241 239 240 243 246 249 251 254 255 256 256 258 260 259 257 255 254 255 254 253 251 250 250 251 252 252 249 245 243 242 242 242 241 239 238
254 274 284 289 291 288 283 276 273 272 273 277 278 279 280 283 284 281 277 274 274 276 276 272 263 254 248 243 240 241 244 248 251 255 258 257 257 258 259 260 260 258 255 254 253 253 253 252 249 249 249 251 251 248 242 239 239 238 238 239 240 240
277 292 296 296 296 292 286 280 277 276 276 279 280 281 283 284 285 284 279 274 272 273 271 269 265 256 247 242 241 243 246 250 252 255 259 259 257 257 259 260 258 255 253 252 250 250 251 253 253 252 251 250 250 248 243 238 236 236 236 236 237 238
299 299 299 295 295 295 292 287 283 280 278 279 280 282 286 288 289 288 285 282 278 275 270 264 262 257 248 242 242 245 246 248 249 252 254 256 256 255 256 257 254 253 252 249 248 249 252 254 256 256 255 253 251 250 247 240 235 233 233 234 235 236
299 298 298 291 291 291 289 287 283 281 279 278 280 282 286 289 290 287 284 283 280 278 274 268 264 259 253 247 243 243 244 245 245 246 247 250 252 252 252 252 251 250 250 248 248 250 250 252 256 258 258 258 256 253 250 245 238 233 233 235 237 238
297 295 295 288 287 284 283 284 282 282 281 282 282 281 281 281 283 282 281 281 279 278 276 274 270 264 259 253 245 241 242 244 242 242 243 245 249 252 254 255 254 250 251 250 248 247 246 248 252 257 260 260 259 253 249 247 242 237 237 239 240 241
299 293 293 287 284 280 282 282 282 285 285 286 285 284 282 280 280 278 277 277 274 272 269 269 269 266 263 255 247 242 240 242 244 245 247 248 252 255 257 259 258 253 254 254 249 247 247 249 252 255 260 261 261 258 251 250 247 242 241 242 243 244
298 289 288 285 281 277 278 277 281 285 287 290 288 286 287 286 286 282 278 275 271 267 262 261 261 262 261 257 252 245 241 243 245 248 249 250 252 254 255 258 260 257 257 259 256 252 251 253 256 258 260 262 264 262 256 254 252 245 245 247 246 246
297 288 282 283 281 276 275 276 279 282 287 294 294 292 290 288 289 286 281 275 273 271 266 262 258 257 258 258 257 252 247 246 246 249 250 251 251 252 254 254 255 255 254 256 257 256 252 252 256 259 261 263 266 267 262 259 259 254 254 256 250 245
292 284 280 282 282 280 278 278 279 283 289 294 296 297 293 288 286 284 282 275 271 272 272 271 266 264 262 260 258 254 251 248 248 248 247 247 247 249 252 250 247 248 249 252 254 254 252 251 254 257 259 261 264 269 268 263 261 259 258 260 256 250
280 276 279 281 282 280 276 276 279 284 289 291 295 298 297 294 288 285 283 278 273 271 272 274 274 272 270 266 262 256 253 249 247 245 242 241 241 243 245 245 244 244 246 248 248 249 250 252 253 254 254 256 258 264 269 265 258 256 258 259 259 257
274 273 277 279 281 278 271 272 277 281 286 290 293 296 298 299 297 292 287 281 276 271 269 271 274 275 274 271 267 261 256 250 246 243 240 238 238 239 240 242 243 243 245 247 247 248 249 251 252 252 252 252 255 257 261 262 258 257 259 260 261 263
275 275 275 276 279 279 273 268 273 278 283 288 291 293 295 296 295 292 289 284 278 273 269 268 270 272 273 272 270 267 262 257 251 247 245 243 242 242 243 244 245 245 246 247 248 250 250 251 252 253 253 253 255 256 256 258 258 259 260 262 263 264
272 273 273 271 274 280 279 270 268 274 282 288 291 292 292 291 289 288 289 287 282 277 273 269 268 269 269 270 269 269 267 263 259 255 252 251 251 251 251 251 251 251 250 250 250 251 252 252 250 251 252 253 254 255 256 256 258 260 261 262 261 259
268 270 272 271 271 276 278 274 269 271 280 290 294 295 293 290 291 294 293 289 283 279 277 274 271 269 269 269 269 269 269 267 265 261 259 257 256 256 256 256 256 256 256 255 253 253 253 252 250 251 252 253 254 256 256 255 257 258 260 261 257 254
265 267 271 274 274 272 273 274 273 271 278 290 295 297 297 298 302 304 300 294 286 281 278 276 275 272 269 267 267 267 267 267 265 263 262 261 260 258 257 257 257 258 258 258 257 255 255 254 252 252 253 253 254 255 254 252 254 257 259 261 258 256
262 268 275 280 279 272 269 273 277 275 278 288 296 298 301 307 310 308 303 297 290 285 280 278 279 277 275 271 268 266 265 264 262 261 260 260 261 260 259 258 257 257 258 258 258 257 256 256 255 253 254 255 254 253 253 252 253 256 256 256 255 256
264 273 280 284 282 271 266 275 283 283 279 283 292 298 302 308 309 306 302 296 291 288 285 284 285 284 283 280 276 271 268 266 265 263 261 260 260 260 259 259 258 258 258 258 258 258 257 256 256 254 254 255 254 253 255 255 254 254 252 249 249 249
272 275 279 282 281 272 267 273 281 285 283 279 289 299 301 303 305 302 299 296 293 290 289 290 292 292 289 287 284 280 274 270 269 267 265 262 260 260 260 259 258 258 258 258 257 256 256 255 255 254 252 250 250 252 254 255 254 254 254 252 251 249
274 272 272 275 278 276 272 273 279 284 286 280 284 297 298 298 301 298 294 293 291 290 291 294 299 299 297 293 289 286 280 274 271 268 267 265 262 261 261 260 259 258 258 258 258 257 256 255 255 254 251 247 246 248 251 254 255 256 258 259 258 257
274 269 267 267 271 275 276 277 279 282 284 283 280 289 295 295 296 293 289 287 287 286 289 297 304 304 302 298 293 289 285 280 274 270 267 265 263 262 261 261 260 260 260 260 259 258 256 255 255 254 251 246 244 244 246 250 253 254 256 259 260 260
270 265 262 261 264 269 275 283 285 281 280 281 279 280 287 290 291 288 284 284 284 282 284 294 304 306 303 299 295 290 285 280 275 271 268 266 265 264 262 261 261 260 260 260 259 259 256 255 254 253 251 248 244 244 244 246 249 252 255 256 259 261
266 259 257 259 262 267 273 279 284 283 279 278 276 274 279 283 283 280 279 280 280 278 279 285 295 301 302 299 296 292 287 282 276 271 267 266 266 266 266 264 262 261 259 259 259 257 256 255 253 252 250 248 246 244 244 245 248 251 254 256 258 259
265 257 263 270 268 271 275 274 277 281 279 275 271 271 277 280 276 272 273 275 275 275 275 279 286 291 293 293 293 292 290 287 282 277 271 266 264 264 266 266 266 264 262 260 260 259 257 255 252 251 249 246 244 243 242 243 246 249 251 253 255 255
270 263 270 280 277 277 279 277 275 274 273 271 271 272 276 279 271 265 268 272 274 276 274 276 279 281 283 283 284 285 285 285 283 281 277 272 268 265 264 265 267 268 268 265 262 261 259 257 254 252 250 247 245 243 241 241 243 245 246 247 248 248
Height
5819 5820 5821 5822 5823 5824 5824 5824 5824 5824 5823 5822 5821 5821 5820 5818 5817 5817 5817 5817 5817 5817 5817 5817 5817 5817 5817 5818 5818 5818 5819 5818 5818 5818 5819 5820 5820 5821 5822 5822 5822 5823 5823 5824 5824 5824 5825 5826 5826 5827 5828 5829 5831 5833 5834 5835 5835 5836 5836 5836 5837 5837
5817 5819 5819 5820 5820 5821 5822 5822 5821 5821 5820 5819 5818 5818 5817 5816 5815 5815 5815 5815 5815 5814 5814 5814 5815 5815 5816 5816 5816 5816 5816 5816 5816 5816 5816 5817 5818 5819 5819 5820 5820 5821 5821 5822 5822 5822 5823 5823 5824 5825 5825 5827 5829 5831 5832 5833 5833 5834 5834 5835 5835 5835
5816 5817 5817 5817 5818 5819 5819 5819 5819 5818 5817 5816 5816 5816 5815 5813 5812 5813 5812 5812 5812 5812 5812 5812 5813 5813 5813 5814 5814 5814 5813 5813 5813 5814 5814 5815 5815 5816 5817 5818 5818 5819 5820 5820 5820 5821 5821 5821 5822 5823 5823 5824 5827 5829 5830 5831 5831 5832 5833 5833 5833 5834
5814 5814 5814 5815 5815 5816 5816 5816 5816 5815 5814 5813 5814 5813 5812 5810 5810 5810 5810 5810 5809 5809 5810 5810 5810 5811 5811 5811 5811 5811 5811 5811 5811 5812 5812 5812 5813 5814 5815 5816 5817 5817 5818 5818 5819 5819 5819 5819 5819 5820 5821 5822 5824 5827 5828 5829 5829 5830 5831 5831 5831 5832
5812 5812 5812 5813 5813 5813 5813 5814 5813 5813 5811 5811 5811 5810 5809 5808 5807 5807 5807 5807 5807 5807 5807 5808 5808 5808 5808 5808 5809 5809 5809 5809 5809 5810 5810 5810 5811 5812 5813 5814 5815 5816 5816 5816 5817 5817 5816 5817 5817 5818 5819 5819 5822 5824 5826 5826 5827 5828 5829 5830 5830 5830
5809 5809 5810 5810 5811 5811 5811 5811 5811 5810 5809 5809 5809 5807 5806 5806 5804 5804 5805 5805 5805 5805 5805 5805 5806 5806 5806 5806 5807 5807 5807 5807 5807 5808 5808 5808 5809 5810 5811 5812 5813 5813 5814 5814 5814 5814 5814 5815 5815 5816 5816 5817 5819 5822 5823 5824 5825 5826 5827 5828 5828 5829
5806 5807 5807 5808 5808 5808 5808 5808 5808 5807 5806 5806 5806 5805 5804 5803 5802 5802 5802 5802 5803 5803 5803 5803 5803 5803 5804 5804 5804 5805 5805 5805 5806 5806 5807 5807 5808 5809 5809 5810 5810 5811 5811 5811 5812 5812 5812 5812 5813 5814 5814 5815 5817 5820 5821 5821 5822 5823 5824 5825 5826 5827
5803 5804 5805 5805 5806 5806 5806 5806 5805 5805 5804 5804 5804 5803 5802 5802 5800 5800 5800 5800 5800 5801 5801 5801 5801 5802 5802 5802 5803 5803 5803 5804 5805 5805 5806 5807 5807 5807 5807 5807 5808 5808 5809 5809 5810 5810 5809 5810 5811 5812 5812 5813 5814 5818 5819 5819 5820 5820 5821 5822 5823 5824
5801 5802 5803 5803 5803 5803 5804 5804 5803 5802 5802 5801 5801 5800 5800 5800 5799 5798 5798 5798 5798 5799 5800 5800 5800 5800 5801 5801 5802 5802 5802 5803 5804 5804 5804 5805 5805 5805 5805 5806 5806 5806 5807 5807 5808 5808 5808 5808 5809 5810 5810 5811 5812 5815 5816 5817 5817 5818 5818 5819 5820 5821
5800 5801 5801 5801 5801 5802 5802 5801 5801 5800 5800 5799 5799 5798 5798 5798 5797 5796 5796 5796 5796 5797 5798 5799 5799 5799 5799 5800 5800 5800 5801 5802 5802 5802 5802 5802 5803 5803 5804 5804 5804 5804 5804 5805 5806 5806 5806 5806 5807 5808 5808 5809 5810 5812 5814 5814 5815 5816 5816 5816 5817 5818
5798 5799 5800 5800 5799 5800 5800 5799 5799 5798 5798 5797 5797 5796 5796 5796 5796 5795 5794 5794 5795 5796 5797 5797 5797 5797 5798 5799 5799 5799 5800 5800 5800 5800 5800 5801 5801 5802 5802 5802 5802 5802 5802 5803 5804 5804 5804 5805 5805 5806 5806 5806 5807 5810 5811 5812 5813 5814 5813 5813 5814 5815
5796 5798 5798 5798 5797 5798 5797 5797 5796 5796 5796 5795 5795 5794 5794 5793 5794 5793 5793 5793 5793 5794 5795 5795 5795 5796 5797 5797 5797 5797 5797 5798 5798 5799 5799 5799 5800 5800 5801 5801 5800 5800 5801 5801 5802 5803 5803 5803 5803 5804 5805 5805 5805 5807 5809 5810 5811 5812 5812 5811 5812 5813
5795 5795 5795 5795 5795 5795 5794 5794 5794 5794 5793 5793 5792 5792 5791 5791 5791 5792 5792 5792 5792 5792 5793 5793 5794 5795 5795 5795 5795 5795 5795 5796 5797 5798 5798 5799 5799 5799 5799 5799 5799 5799 5800 5800 5801 5801 5801 5801 5802 5802 5802 5802 5803 5805 5806 5807 5809 5809 5810 5810 5810 5811
5793 5793 5793 5792 5792 5792 5791 5791 5791 5791 5791 5791 5790 5790 5790 5790 5790 5790 5790 5791 5791 5791 5791 5792 5792 5793 5793 5793 5793 5793 5794 5795 5796 5797 5797 5797 5797 5797 5797 5797 5797 5797 5798 5799 5799 5799 5799 5799 5799 5800 5799 5800 5800 5802 5803 5804 5805 5806 5807 5807 5808 5809
5791 5790 5790 5790 5790 5789 5789 5789 5788 5789 5789 5789 5788 5788 5788 5788 5788 5788 5788 5789 5789 5789 5790 5790 5790 5791 5791 5791 5792 5792 5793 5794 5795 5795 5796 5796 5796 5795 5795 5795 5795 5795 5796 5797 5797 5797 5797 5797 5797 5797 5798 5798 5798 5799 5800 5802 5802 5803 5804 5805 5806 5806
5788 5788 5788 5788 5787 5787 5787 5786 5786 5786 5787 5787 5787 5786 5786 5785 5785 5785 5786 5787 5788 5788 5788 5788 5788 5789 5789 5790 5790 5791 5792 5792 5793 5794 5794 5794 5794 5793 5793 5793 5793 5793 5794 5795 5795 5795 5795 5795 5795 5796 5796 5797 5797 5797 5797 5799 5800 5801 5801 5802 5803 5804
5786 5786 5786 5786 5786 5786 5785 5785 5784 5784 5784 5784 5784 5784 5783 5783 5783 5783 5784 5784 5785 5785 5785 5786 5786 5787 5787 5788 5789 5789 5790 5791 5791 5792 5792 5792 5792 5791 5791 5791 5791 5792 5792 5793 5794 5794 5794 5794 5794 5794 5794 5795 5795 5795 5795 5797 5798 5799 5799 5799 5800 5801
5783 5784 5785 5785 5785 5785 5784 5783 5782 5781 5781 5781 5781 5781 5781 5782 5782 5782 5782 5782 5783 5783 5783 5783 5784 5784 5785 5786 5787 5787 5788 5789 5789 5790 5790 5790 5790 5789 5789 5789 5790 5791 5791 5791 5792 5792 5792 5792 5792 5792 5792 5793 5794 5794 5793 5794 5795 5797 5798 5798 5798 5798
5781 5782 5783 5783 5783 5783 5782 5781 5780 5779 5779 5779 5779 5779 5780 5780 5780 5780 5781 5781 5781 5782 5782 5782 5782 5782 5783 5783 5784 5785 5786 5787 5787 5788 5788 5788 5788 5788 5787 5787 5788 5788 5788 5789 5790 5790 5790 5790 5790 5790 5790 5791 5791 5792 5791 5792 5793 5794 5795 5796 5796 5796
5779 5779 5780 5781 5781 5781 5780 5779 5778 5778 5777 5777 5777 5777 5778 5778 5778 5778 5778 5779 5779 5779 5780 5780 5780 5781 5781 5781 5782 5783 5784 5784 5785 5785 5786 5786 5786 5785 5785 5785 5786 5786 5786 5787 5787 5788 5788 5788 5788 5788 5788 5789 5789 5789 5789 5789 5790 5791 5792 5793 5793 5793
5776 5777 5778 5778 5779 5779 5778 5777 5777 5776 5776 5775 5775 5775 5776 5776 5775 5776 5776 5776 5776 5777 5777 5778 5778 5779 5779 5779 5780 5780 5781 5782 5782 5783 5783 5783 5783 5783 5783 5784 5784 5784 5784 5784 5785 5785 5785 5785 5785 5785 5786 5786 5787 5787 5787 5787 5787 5788 5789 5789 5790 5790
5774 5775 5776 5776 5777 5776 5776 5775 5774 5774 5773 5773 5773 5773 5773 5773 5773 5773 5773 5773 5774 5774 5774 5775 5776 5776 5777 5777 5777 5777 5778 5779 5779 5780 5780 5781 5780 5781 5781 5781 5782 5782 5782 5782 5782 5783 5783 5783 5783 5783 5783 5784 5784 5784 5784 5785 5785 5786 5786 5786 5787 5787
5773 5774 5774 5775 5776 5775 5775 5773 5773 5772 5771 5771 5770 5770 5770 5770 5771 5771 5771 5771 5771 5771 5772 5772 5772 5773 5774 5775 5775 5775 5775 5776 5776 5777 5777 5777 5777 5778 5778 5778 5779 5779 5779 5779 5780 5780 5780 5781 5781 5781 5781 5782 5782 5782 5782 5782 5783 5783 5784 5784 5784 5784
5772 5773 5773 5774 5774 5775 5774 5773 5771 5771 5770 5769 5768 5768 5768 5767 5768 5768 5768 5768 5768 5769 5769 5769 5769 5770 5771 5772 5772 5772 5773 5773 5774 5774 5774 5774 5774 5775 5775 5775 5776 5776 5777 5777 5777 5778 5778 5778 5779 5779 5779 5779 5779 5780 5780 5781 5781 5781 5782 5782 5782 5782
5770 5771 5771 5772 5773 5773 5773 5772 5770 5770 5769 5767 5767 5766 5766 5766 5766 5766 5766 5766 5766 5766 5767 5767 5767 5768 5768 5769 5769 5770 5770 5771 5771 5771 5771 5771 5771 5772 5772 5773 5773 5774 5774 5774 5775 5775 5775 5776 5776 5776 5776 5776 5777 5778 5778 5779 5779 5779 5779 5779 5779 5779
5768 5769 5769 5769 5770 5771 5772 5771 5770 5768 5767 5766 5765 5764 5764 5764 5764 5764 5764 5764 5764 5764 5764 5765 5765 5765 5766 5766 5767 5767 5767 5768 5768 5768 5769 5769 5769 5769 5770 5770 5771 5771 5772 5772 5772 5772 5773 5773 5773 5773 5773 5773 5774 5775 5776 5776 5776 5776 5776 5776 5777 5777
5767 5767 5767 5767 5767 5768 5769 5770 5769 5767 5766 5764 5763 5762 5762 5761 5761 5762 5762 5762 5762 5762 5762 5762 5763 5763 5764 5764 5764 5764 5765 5765 5766 5766 5766 5766 5766 5767 5767 5767 5768 5768 5769 5769 5769 5770 5770 5770 5771 5770 5770 5771 5772 5772 5773 5773 5773 5773 5774 5774 5774 5775
5765 5765 5765 5764 5765 5765 5766 5767 5767 5765 5764 5762 5761 5760 5760 5759 5759 5759 5759 5760 5760 5760 5760 5760 5760 5761 5762 5762 5762 5763 5763 5763 5763 5763 5763 5764 5764 5764 5765 5765 5765 5765 5766 5766 5767 5767 5767 5767 5768 5768 5767 5768 5770 5770 5770 5770 5770 5770 5771 5771 5772 5773
5763 5763 5762 5762 5762 5762 5762 5763 5764 5763 5761 5759 5758 5758 5757 5757 5757 5757 5757 5757 5757 5758 5758 5758 5758 5759 5759 5760 5761 5761 5761 5761 5761 5761 5761 5761 5761 5762 5762 5762 5763 5763 5763 5764 5764 5764 5764 5764 5765 5765 5765 5766 5767 5767 5767 5767 5767 5768 5769 5770 5770 5771
5759 5759 5759 5758 5758 5758 5759 5759 5760 5760 5758 5757 5756 5755 5755 5755 5755 5755 5755 5755 5755 5756 5756 5756 5756 5756 5757 5758 5758 5759 5759 5759 5759 5759 5759 5759 5759 5759 5760 5760 5760 5760 5761 5761 5762 5762 5762 5762 5762 5763 5763 5763 5763 5764 5764 5764 5764 5765 5766 5767 5767 5768
5756 5755 5755 5754 5754 5755 5755 5755 5755 5756 5756 5755 5754 5753 5753 5753 5753 5753 5754 5754 5754 5754 5754 5754 5754 5754 5755 5755 5756 5756 5756 5757 5757 5757 5757 5757 5757 5757 5757 5757 5757 5758 5758 5758 5759 5759 5759 5759 5759 5760 5761 5761 5761 5761 5761 5761 5762 5762 5762 5763 5764 5765
5752 5751 5751 5750 5751 5751 5751 5751 5752 5753 5754 5754 5753 5752 5752 5752 5752 5752 5752 5752 5752 5752 5752 5752 5752 5752 5753 5753 5753 5754 5754 5754 5755 5755 5755 5755 5755 5755 5755 5755 5755 5755 5755 5756 5756 5756 5756 5756 5757 5757 5757 5758 5758 5758 5759 5759 5759 5759 5760 5760 5761 5762
5747 5746 5746 5746 5747 5747 5748 5749 5749 5750 5752 5752 5751 5750 5750 5750 5751 5751 5751 5751 5751 5751 5751 5751 5751 5751 5751 5751 5751 5751 5752 5752 5752 5753 5753 5753 5753 5752 5752 5752 5752 5753 5753 5753 5753 5753 5753 5753 5754 5754 5754 5755 5755 5755 5756 5756 5756 5756 5757 5757 5757 5758
5739 5739 5741 5742 5743 5743 5745 5746 5747 5748 5748 5749 5749 5748 5747 5748 5749 5749 5749 5749 5749 5749 5749 5749 5749 5749 5749 5749 5749 5749 5749 5750 5750 5750 5751 5751 5751 5751 5751 5750 5750 5750 5750 5750 5750 5751 5751 5751 5751 5751 5751 5752 5752 5752 5752 5753 5753 5753 5753 5754 5754 5754
5738 5738 5739 5740 5740 5741 5743 5744 5744 5745 5745 5746 5746 5746 5745 5745 5746 5747 5747 5747 5747 5748 5747 5747 5748 5748 5748 5748 5748 5747 5747 5748 5748 5748 5748 5748 5748 5749 5749 5749 5748 5748 5748 5748 5748 5748 5748 5748 5748 5748 5749 5749 5749 5749 5750 5750 5750 5750 5750 5750 5751 5751
5742 5743 5742 5742 5740 5739 5740 5741 5741 5742 5742 5742 5744 5744 5743 5743 5743 5744 5744 5745 5745 5746 5746 5746 5746 5746 5746 5746 5746 5746 5746 5746 5746 5746 5746 5746 5746 5746 5746 5746 5746 5746 5746 5746 5746 5746 5746 5746 5746 5746 5746 5746 5746 5747 5747 5747 5747 5747 5747 5748 5748 5748
5740 5742 5742 5741 5740 5737 5737 5739 5739 5739 5740 5740 5742 5742 5742 5741 5741 5741 5742 5742 5743 5743 5744 5744 5744 5744 5744 5744 5744 5744 5744 5744 5744 5744 5744 5745 5745 5745 5745 5745 5745 5744 5744 5744 5744 5744 5744 5744 5744 5744 5744 5744 5744 5744 5744 5744 5745 5745 5745 5745 5745 5746